Location: Unspecified
(0.0000°N, 0.0000°E)
Time: 10:08:02
(UTC+00:00)

Courier 1B Rocket - Pass Details

Date: 24 May 2026
Orbit: 920 x 1201 km, 28.2° (Epoch: 9 June)

Event Time Altitude Azimuth Distance (km) Brightness Sun altitude
Rises 00:16:58 0° 240° (WSW) 4,051 - -68.7°
Reaches altitude 10° 00:19:51 10° 241° (WSW) 3,060 - -68.5°
Maximum altitude 00:27:28 87° 331° (NNW) 1,111 - -68.0°
Drops below altitude 10° 00:34:32 10° 59° (ENE) 2,855 - -67.3°
Sets 00:37:09 0° 59° (ENE) 3,766 - -67.0°
